RH
37 40 42 45 50 53 53 52 46 39 43 49 48 50 41 36 36 40 40 34 26 19 15 33 38 30 29
42 42 42 46 51 56 56 53 50 49 51 45 58 16 18 35 26 19 24 7 5 5 6 7 17 37 38
44 43 43 48 53 55 54 52 54 56 52 61 50 10 11 14 13 13 11 11 8 9 11 11 8 10 20
45 44 47 53 56 56 56 55 50 56 51 57 34 16 21 23 26 25 24 24 23 22 21 19 16 17 19
46 48 54 59 58 54 54 63 64 21 16 22 28 31 30 29 29 28 26 24 23 21 20 20 17 32 37
52 55 60 65 69 68 39 18 25 31 33 33 33 33 31 30 28 26 25 23 22 21 18 16 18 24 98
55 52 63 52 25 32 49 56 51 46 44 44 43 41 36 31 28 24 23 22 19 18 16 15 14 15 21
26 25 28 32 43 51 48 54 52 52 59 60 55 54 51 46 40 31 25 22 20 17 15 13 11 9 10
27 42 54 56 56 50 48 61 64 66 74 82 78 70 56 50 46 37 29 26 25 24 23 22 21 19 18
40 49 55 53 53 59 56 49 68 76 59 70 82 93 79 61 52 49 45 38 35 34 34 34 33 33 33
49 60 61 66 71 66 46 58 68 71 63 80 91 81 88 83 79 62 54 49 47 45 44 44 44 44 44
63 63 46 52 60 51 44 42 62 76 76 44 42 53 64 59 70 85 74 62 58 57 55 54 54 53 51
58 46 43 43 44 74 74 50 41 38 36 40 52 54 58 68 82 91 93 96 92 72 60 57 54 52 51
60 55 42 43 44 43 41 38 35 33 53 74 60 61 83 88 89 92 95 99 98 97 96 94 90 81 70
55 39 38 40 38 36 34 32 31 43 81 52 57 76 80 84 92 92 94 98 96 94 90 89 88 88 92
34 30 32 31 30 28 28 28 29 42 49 36 56 82 94 93 91 91 92 94 94 93 94 94 94 88 85
29 23 24 23 23 23 24 25 27 30 34 54 92 92 90 91 94 94 93 91 91 90 89 88 90 94 89
Wind_Speed
31 31 31 31 30 28 26 27 29 29 27 23 21 18 16 13 15 15 16 15 14 14 14 13 14 17 21
31 32 33 32 31 29 27 26 25 23 22 22 19 19 16 13 13 13 15 13 13 13 12 12 14 16 20
32 32 32 31 30 27 25 25 23 21 19 19 16 18 15 13 13 15 15 14 14 15 14 13 14 17 21
32 31 30 28 26 23 21 18 17 16 15 14 15 16 16 16 16 16 17 17 16 17 17 15 16 17 17
30 28 26 23 21 18 15 14 12 12 11 12 14 16 17 18 18 18 17 16 16 17 17 17 17 19 20
25 23 21 17 15 12 9 8 9 10 12 14 17 19 17 16 16 16 16 16 17 17 17 19 19 18 20
20 16 12 10 8 6 5 6 7 9 11 11 13 14 14 14 14 14 14 15 16 17 18 19 19 19 19
14 12 9 9 10 9 8 7 7 7 7 10 12 11 12 13 13 14 15 16 15 16 17 18 19 20 21
13 11 9 11 9 9 11 10 12 11 13 14 15 13 14 15 15 16 16 16 16 16 17 18 18 19 20
16 14 11 11 10 9 11 10 10 12 11 12 15 14 12 14 14 16 16 17 18 18 19 19 20 21 22
16 15 14 14 14 12 11 13 12 12 14 16 13 15 13 13 16 16 17 18 19 20 21 21 22 23 23
19 18 17 17 17 17 17 15 16 16 16 16 16 17 18 22 23 22 20 19 20 21 21 21 22 23 23
20 19 18 19 19 18 17 17 17 17 16 15 18 23 26 27 23 22 24 25 25 23 22 21 22 23 24
23 20 20 20 21 22 20 20 18 17 17 19 21 22 22 22 21 20 22 22 24 26 26 26 25 26 26
25 23 22 22 22 21 21 21 21 20 20 22 23 25 25 23 22 22 22 24 25 25 25 27 28 28 29
26 24 23 23 23 23 23 23 24 24 25 25 27 28 24 23 23 23 24 25 26 27 27 27 28 29 29
27 25 24 24 24 24 25 25 25 28 29 30 33 29 24 23 22 24 25 26 28 29 29 30 29 31 31
Wind_Direction
294 295 294 293 289 283 278 280 279 277 277 272 267 261 260 256 252 252 251 242 239 235 232 225 218 213 212
294 295 294 291 289 286 280 277 275 275 277 271 268 256 250 247 249 252 246 241 239 235 229 222 220 214 217
293 292 291 290 285 281 278 277 276 273 271 268 253 257 253 251 251 251 252 248 244 245 238 232 228 227 226
291 291 289 286 282 277 271 270 269 266 263 260 257 258 261 259 259 257 254 253 249 249 243 233 230 227 230
290 290 286 283 277 270 266 262 254 251 259 263 268 274 270 264 259 257 252 247 244 240 238 237 224 222 223
288 286 280 272 267 261 257 259 262 261 259 263 256 261 266 263 261 257 253 249 244 239 238 235 233 221 212
283 279 269 253 243 240 249 259 272 279 282 292 281 275 271 266 262 261 258 251 245 240 237 237 235 231 228
268 254 242 242 246 250 247 269 276 269 270 275 287 282 280 278 274 268 257 251 244 241 237 236 235 233 231
245 222 245 258 257 268 259 248 260 263 265 275 268 277 283 273 263 257 253 248 245 241 240 239 238 239 238
236 234 242 253 241 242 250 244 268 283 270 275 292 268 280 281 269 259 252 248 246 245 244 243 243 244 244
226 235 241 252 252 253 249 259 275 271 268 270 276 281 278 287 283 270 258 251 246 246 246 247 248 249 250
243 242 242 246 255 254 255 256 265 272 277 279 274 270 272 285 291 267 260 255 251 249 248 249 250 252 253
239 244 247 248 246 252 254 260 266 270 271 274 281 285 284 286 281 264 256 256 253 251 249 249 251 253 256
240 247 250 250 253 257 260 261 263 263 271 288 294 299 297 288 278 271 264 260 256 252 248 248 251 256 261
244 250 251 252 255 258 260 261 262 258 276 285 294 297 294 289 281 272 263 260 258 255 255 256 257 257 260
247 250 251 253 255 258 260 260 259 261 276 284 288 294 292 284 279 274 269 263 259 258 258 259 262 263 263
249 249 253 256 257 258 260 262 262 264 276 284 288 287 285 281 278 278 274 271 269 266 264 264 264 266 266